Showing default

IRIDIUM 155, 43573

Orbit data source: Space-Track

IRIDIUM 155, 43573 is a payload satellite owned by Iridium (US) in LEO that was launched on Wed, 25 Jul 2018 UTC via an FALCON 9 launch vehicle from the Air Force Western Test Range (AFWTR). Payload-class satellites include a variety of spacecraft equipped with specific instruments for various scientific and technological missions. These include communications satellites like Starlink; space stations such as the ISS; scientific satellites like the Hubble; Earth observation satellites from companies like Planet Labs, Umbra, and HawkEye 360; GPS; miniature CubeSats for education and research; and military/defense satellites.

Loading next visibility...
Identifier
43573, 2018-061E
Orbit
LEO
Country
Flag of USUS
Related business
Manufacturer
NGIS SSG Gilbert
Mission
Operational Commercial Communications
Bus & Motor
ELITEBUS, Unknown motor
Mass
860 kg wet, 700 kg dry
Launch date (UTC)
2018-07-25 (7 years ago)
Launch vehicle
FALCON 9
Launch site
Air Force Western Test Range (AFWTR)
Object type
Payload
Rocket body
Debris
Shape & HBR
Trap Box + 2 Pan, 4.7 m
Radar Cross Section
14.423 m², Large (>1 m²)

Expand to show TLE details & history
Last TLE update: 15 hours ago

TLE from 15 hours ago
0 IRIDIUM 155
1 43573U 18061E   25258.78127910  .00000076  00000-0  19985-4 0  9994
2 43573  86.4043 171.3610 0002421  86.2311 273.9162 14.34217691374022
Epoch: 2025-09-15T18:45Z
TLE epoch observation values (Epoch: 2025-09-15T18:45:02.514Z)
Latitude
0.00003°
Longitude
-104.88048°
Altitude
780.6 km
Speed
7.464 km/s
True Right ascension
11h 25m 26s
True Declination
0° 00' 00"
Sunlit
Object was in daylight at epoch
Visualization orbit readout
Latitude
Unknown
Longitude
Unknown
Altitude
Unknown
Speed
Unknown
Apparent Right ascension
Unknown
Apparent Declination
Unknown
Sunlit
N/A
Visualization observer readout
Local Sidereal Time
02:15:04
Azimuth
Unknown
Elevation
Unknown
Doppler factor
Unknown
Orbital elements
Apogee altitude
776.363 km
Perigee altitude
772.9 km
Semi-major axis
7,152.769 km
Eccentricity
0.00024
Inclination
86.4043°
RAAN
171.361°
Arg. of periapsis
86.2311°
True anomaly
273.88852°
Mean anomaly
273.9162°
Eccentric anomaly
273.90236°
Mean motion
3.58783 °/min
Orbital period
100.34 mins
BSTAR
0.000019985
Loading maneuver chart data...
Computing Atmospheric mass density...
Loading historical data...
Loading historical data...
Loading historical data...
Loading historical data...
Loading historical data...
Loading historical data...
Loading historical data...

Documentation

Showing up to 5 results
|